#timestamp,LO_Frequency,Hit 
1499569215.7,286047055.7,N
1499569235.6,286047058.4,N
1499569255.4,286047057.4,N
1499569275.2,286047057.7,N
1499569295.1,286047060.3,N
1499569296.0,286047060.3,N
1499569315.8,286047060.1,N
1499569335.6,286047057.6,N
1499569355.4,286047058.8,N
1499569375.3,286047058.5,N
1499569395.1,286047058.3,N
1499569415.8,286047058.5,N
1499569435.7,286047057.7,N
1499569455.5,286047060.3,N
1499569475.3,286047059.7,N
1499569495.2,286047061.5,N
1499569515.9,286047061.6,N
1499569535.7,286047059.4,N
1499569555.6,286047059.7,N
1499569575.4,286047057.6,N
1499569595.2,286047057.3,N
1499569615.1,286047058.0,N
1499569616.0,286047058.0,N
1499569635.8,286047059.7,N
1499569655.6,286047059.3,N
1499569675.5,286047059.4,N
1499569695.3,286047059.2,N
1499569715.1,286047059.0,N
1499569735.8,286047061.6,N
1499569755.7,286047063.4,N
1499569775.5,286047062.3,N
1499569795.3,286047062.8,N
1499569815.2,286047066.6,N
1499569835.0,286047064.8,N
1499569835.9,286047064.8,N
1499569855.7,286047064.9,N
1499569875.6,286047068.4,N
1499569895.4,286047069.8,N
1499569915.2,286047065.4,N
1499569935.1,286047065.8,N
1499569936.0,286047065.8,N
1499569955.8,286047065.3,N
1499569975.6,286047065.8,N
1499569995.5,286047068.3,N
1499570015.3,286047066.7,N
1499570035.1,286047064.4,N
1499570055.9,286047065.0,N
1499570075.7,286047062.1,N
1499570095.5,286047064.4,N
1499570115.4,286047062.8,N
1499570135.2,286047065.0,N
1499570155.0,286047064.9,N
1499570155.9,286047064.9,N
1499570175.8,286047065.1,N
1499570195.6,286047064.3,N
1499570215.4,286047062.8,N
1499570235.2,286047064.3,N
1499570255.1,286047064.1,N
1499570256.0,286047064.1,N
1499570275.8,286047063.9,N
1499570295.6,286047065.5,N
1499570315.5,286047065.7,N
1499570335.3,286047066.3,N
1499570355.1,286047066.4,N
1499570375.9,286047066.5,N
1499570395.7,286047067.4,N
1499570415.5,286047069.6,N
1499570435.4,286047067.9,N
1499570455.2,286047066.0,N
1499570475.0,286047066.8,N
1499570475.9,286047066.8,N
1499570495.8,286047063.7,N
1499570515.6,286047066.2,N
1499570535.4,286047065.8,N
1499570555.2,286047066.6,N
1499570575.1,286047066.7,N
1499570576.0,286047066.7,N
1499570595.8,286047066.1,N
1499570615.6,286047066.1,N
1499570635.5,286047064.3,N
1499570655.3,286047064.1,N
1499570675.1,286047063.7,N
1499570695.9,286047065.2,N
1499570715.7,286047064.2,N
1499570735.5,286047062.1,N
1499570755.4,286047065.0,N
1499570775.2,286047062.2,N
1499570795.0,286047062.6,N
1499570795.9,286047062.6,N
1499570815.8,286047064.5,N
1499570835.6,286047064.2,N
1499570855.4,286047064.1,N
1499570875.3,286047066.4,N
1499570895.1,286047063.8,N
1499570896.0,286047063.8,N
1499570915.8,286047066.8,N
1499570935.7,286047066.5,N
1499570955.5,286047066.5,N
1499570975.3,286047065.7,N
1499570995.2,286047063.7,N
1499571015.9,286047064.4,N
1499571035.7,286047063.9,N
1499571055.5,286047064.5,N
1499571075.4,286047065.4,N
1499571095.2,286047065.5,N
1499571115.0,286047066.6,N
1499571115.9,286047066.6,N
1499571135.8,286047065.7,N
1499571155.6,286047068.3,N
1499571175.4,286047065.9,N
1499571195.3,286047065.9,N
1499571215.1,286047065.7,N
1499571235.8,286047066.0,N
1499571255.7,286047068.4,N
1499571275.5,286047068.0,N
1499571295.3,286047067.6,N
1499571315.2,286047068.4,N
1499571335.9,286047067.7,N
1499571355.7,286047069.9,Y
1499571375.6,286047020.8,N
1499571395.4,286047022.0,N
1499571415.2,286047021.1,N
1499571435.1,286047023.2,N
1499571436.0,286047023.2,N
1499571455.8,286047026.7,N
1499571475.6,286047025.3,N
1499571495.5,286047024.2,N
1499571515.3,286047027.8,N
1499571535.1,286047026.8,N
1499571555.8,286047026.4,N
1499571575.7,286047023.8,N
1499571595.5,286047023.9,N
1499571615.3,286047024.4,N
1499571635.2,286047025.0,N
1499571655.0,286047026.7,N
1499571655.9,286047026.7,N
1499571675.7,286047026.1,N
1499571695.6,286047028.4,N
1499571715.4,286047025.6,N
1499571735.2,286047026.8,N
1499571755.1,286047022.9,N
1499571756.0,286047022.9,N
1499571775.8,286047022.3,N
1499571795.6,286047022.5,N
1499571815.5,286047025.1,N
1499571835.3,286047024.1,N
1499571855.1,286047026.4,N
1499571875.9,286047022.4,N
1499571895.7,286047024.8,N
1499571915.5,286047024.6,N
1499571935.4,286047022.6,N
1499571955.2,286047022.7,N
1499571975.0,286047024.2,N
1499571975.9,286047024.2,N
1499571995.8,286047024.3,N
1499572015.6,286047025.1,N
1499572035.4,286047024.6,N
1499572055.2,286047023.7,N
1499572075.1,286047026.7,N
1499572076.0,286047026.7,N
1499572095.8,286047026.2,N
1499572115.6,286047028.4,N
1499572135.5,286047026.1,N
1499572155.3,286047025.5,N
1499572175.1,286047028.2,N
1499572195.9,286047027.9,N
1499572215.7,286047025.5,N
1499572235.5,286047025.8,N
1499572255.4,286047025.8,N
1499572275.2,286047026.0,N
1499572295.0,286047028.4,N
1499572295.9,286047028.4,N
1499572315.8,286047025.4,N
1499572335.6,286047027.6,N
1499572355.4,286047027.6,N
1499572375.3,286047029.9,N
1499572395.1,286047027.4,N
1499572396.0,286047027.4,N
1499572415.8,286047024.2,N
1499572435.7,286047025.2,N
1499572455.5,286047025.5,N
1499572475.3,286047028.2,N
1499572495.1,286047026.6,N
1499572515.9,286047027.9,N
1499572535.7,286047026.8,N
1499572555.5,286047025.6,N
1499572575.4,286047026.8,N
1499572595.2,286047024.2,N
1499572615.0,286047026.5,N
1499572615.9,286047026.5,N
1499572635.8,286047027.6,N
1499572655.6,286047027.8,N
1499572675.4,286047028.2,N
1499572695.3,286047027.7,N
1499572715.1,286047025.3,N
1499572716.0,286047025.3,N
1499572735.8,286047026.4,N
1499572755.7,286047026.1,N
1499572775.5,286047025.4,N
1499572795.3,286047028.0,N
